Regional Weather Roundup
Issued by NWS

Home | Current Version | Previous Version | Text Only | Print | Product List | Glossary On
Versions: 1 2 3 4 5 6 7 8 9 10 11 12 13 14 15 16 17 18 19 20 21 22 23 24 25 26 27 28 29 30 31 32 33 34 35 36 37 38 39 40 41 42 43 44 45 46 47 48 49 50
000
ASUS44 KBMX 221110
RWRAL

ALABAMA REGIONAL WEATHER ROUNDUP
NATIONAL WEATHER SERVICE BIRMINGHAM AL
600 AM CDT TUE JUL 22 2014

NOTE: "FAIR" INDICATES FEW OR NO CLOUDS BELOW 12,000 FEET
WITH NO SIGNIFICANT WEATHER AND/OR OBSTRUCTIONS TO VISIBILITY.

THE REMARK "TC" DENOTES TEMPERATURE IN DEGREES CELSIUS.

ALZ001>011-014-016>018-020-221200-
NORTH ALABAMA

CITY           SKY/WX    TMP DP  RH WIND       PRES   REMARKS
MUSCLE SHOALS  FOG       70  68  93 CALM      30.09R VSB 1
HUNTSVILLE     MOCLDY    74  71  91 E5        30.09R
DECATUR        MOCLDY    72  71  97 CALM      30.09R
HALEYVILLE     FAIR      69  69 100 CALM      30.11R FOG
GADSDEN        CLOUDY    72  70  94 CALM      30.09R
$$

ALZ012-013-022-023-030>036-040>044-221200-
WEST CENTRAL ALABAMA

CITY           SKY/WX    TMP DP  RH WIND       PRES   REMARKS
TUSCALOOSA     CLOUDY    76  72  87 CALM      30.04S
$$

ALZ015-024>027-033>036-040>044-221200-
CENTRAL ALABAMA

CITY           SKY/WX    TMP DP  RH WIND       PRES   REMARKS
BIRMINGHAM     CLOUDY    75  72  88 E8        30.10R
MONTGOMERY     CLOUDY    75  72  90 E5        30.05R
SHELBY CO ARPT CLOUDY    74  73  97 CALM      30.08R FOG
MAXWELL AFB    CLOUDY    76  75  99 E6        30.05R
GREENVILLE     CLOUDY    75  72  90 CALM      30.04R FOG
$$

ALZ019-021-028-029-037-038-045>048-221200-
EAST CENTRAL ALABAMA

CITY           SKY/WX    TMP DP  RH WIND       PRES   REMARKS
ANNISTON       CLOUDY    73  71  93 E5        30.09R
ALEXANDER CITY NOT AVBL
AUBURN         CLOUDY    70  68  94 E6        30.12R
$$

ALZ051>064-221200-
SOUTHWEST ALABAMA

CITY           SKY/WX    TMP DP  RH WIND       PRES   REMARKS
MOBILE         CLOUDY    74  74 100 CALM      30.01R FOG
BROOKLEY FIELD MOCLDY    76  75  97 NW3       30.01R
EVERGREEN      MOCLDY    76  74  93 SE5       30.03S
$$

ALZ049-050-065>069-221200-
SOUTHEAST ALABAMA

CITY           SKY/WX    TMP DP  RH WIND       PRES   REMARKS
DOTHAN         MOCLDY    73  71  93 SE3       30.09R
OZARK          MOCLDY    73  72  94 E3        30.06R
TROY           CLOUDY    74  72  93 E5        30.07R
EUFAULA        CLOUDY    74  72  93 CALM      30.06R
$$


USA.gov is the U.S. government's official web portal to all federal, state and local government web resources and services.